Latest Weather Observations for Camooweal

IDD60801

Issued at 12:01 pm CST Friday 3 July 2015 (issued every 30 minutes, with the page automatically refreshed every 10 minutes)

About weather observations | Map of weather stations | Latest weather observations for NT | Other Formats
Station Details ID: 037010 Name: CAMOOWEAL TOWNSHIP Lat: -19.92 Lon: 138.12 Height: 231.2 m
Data from the previous 72 hours. | See also: Recent months at Camooweal
Date/Time
CST
Temp
°C
App
Temp
°C
Dew
Point
Rel
Hum
%
Delta-T
°C
Wind Press
QNH
hPa
Press
MSL
hPa
Rain
since 9 am
mm
Dir
 
Spd
km/h
Gust
km/h
Spd
kts
Gust
kts
03/12:00pm 22.4 18.1 5.4 33 8.6 SSE 17 28 9 15 1020.4 1019.9 0.0
03/11:30am 21.5 17.2 5.4 35 8.1 ESE 17 24 9 13 1021.1 1020.7 0.0
03/11:00am 21.0 16.8 5.8 37 7.6 SE 17 28 9 15 1021.7 1021.3 0.0
03/10:30am 19.6 14.9 5.3 39 7.1 SE 19 26 10 14 1022.1 1021.7 0.0
03/10:00am 18.5 13.6 5.0 41 6.6 SE 20 28 11 15 1022.4 1022.0 0.0
03/09:30am 17.5 12.5 4.8 43 6.1 SE 20 28 11 15 1022.6 1022.2 0.0
03/09:00am 16.2 11.3 4.3 45 5.6 SE 19 26 10 14 1022.5 1022.1 0.0
03/08:30am 14.8 10.2 3.9 48 5.0 SSE 17 26 9 14 1022.4 1022.0 0.0
03/08:00am 13.1 9.4 4.3 55 4.0 SSE 13 19 7 10 1022.4 1022.0 0.0
03/07:30am 10.1 7.1 4.0 66 2.7 S 9 11 5 6 1022.1 1021.7 0.0
03/07:00am 9.2 6.1 3.4 67 2.5 S 9 11 5 6 1021.8 1021.4 0.0
03/06:30am 9.5 6.0 3.5 66 2.6 SSW 11 13 6 7 1021.5 1021.1 0.0
03/06:00am 9.8 5.9 3.5 65 2.8 S 13 15 7 8 1021.3 1020.9 0.0
03/05:30am 10.4 6.9 3.7 63 3.0 S 11 13 6 7 1021.0 1020.6 0.0
03/05:00am 11.0 7.2 3.8 61 3.2 S 13 15 7 8 1021.0 1020.6 0.0
03/04:30am 12.0 8.2 3.8 57 3.7 S 13 17 7 9 1021.1 1020.7 0.0
03/04:00am 12.5 8.3 3.7 55 4.0 S 15 19 8 10 1021.0 1020.6 0.0
03/03:30am 13.1 8.5 3.7 53 4.3 SSE 17 20 9 11 1021.2 1020.8 0.0
03/03:00am 13.5 8.5 3.6 51 4.5 S 19 26 10 14 1021.3 1020.9 0.0
03/02:30am 13.5 8.8 3.3 50 4.6 SSE 17 24 9 13 1021.4 1021.0 0.0
03/02:00am 13.8 8.7 3.0 48 4.9 S 19 22 10 12 1021.5 1021.1 0.0
03/01:30am 14.7 9.7 3.5 47 5.1 S 19 26 10 14 1021.8 1021.4 0.0
03/01:00am 14.7 10.0 2.9 45 5.4 S 17 22 9 12 1022.1 1021.7 0.0
03/12:30am 15.2 10.1 3.0 44 5.6 S 19 24 10 13 1022.2 1021.8 0.0
03/12:00am 15.7 10.4 2.8 42 5.9 S 20 28 11 15 1022.4 1022.0 0.0
 
Date/Time
CST
Temp
°C
App
Temp
°C
Dew
Point
Rel
Hum
%
Delta-T
°C
Wind Press
QNH
hPa
Press
MSL
hPa
Rain
since 9 am
mm
Dir
 
Spd
km/h
Gust
km/h
Spd
kts
Gust
kts
02/11:30pm 16.5 10.8 2.9 40 6.2 SSE 22 28 12 15 1022.5 1022.1 0.0
02/11:00pm 16.8 11.1 2.8 39 6.5 SSE 22 32 12 17 1022.7 1022.3 0.0
02/10:30pm 17.5 11.1 3.4 39 6.6 SSE 26 33 14 18 1022.7 1022.3 0.0
02/10:00pm 17.9 11.5 3.4 38 6.8 SSE 26 32 14 17 1022.6 1022.2 0.0
02/09:30pm 18.3 11.9 3.4 37 7.0 S 26 35 14 19 1022.5 1022.1 0.0
02/09:00pm 18.8 12.8 3.4 36 7.3 S 24 35 13 19 1022.3 1021.9 0.0
02/08:30pm 19.3 13.8 3.9 36 7.4 S 22 32 12 17 1022.1 1021.7 0.0
02/08:00pm 19.9 14.0 4.0 35 7.7 S 24 32 13 17 1021.9 1021.5 0.0
02/07:30pm 20.5 15.0 4.1 34 8.0 S 22 30 12 16 1021.6 1021.2 0.0
02/07:00pm 21.1 16.1 4.6 34 8.1 S 20 28 11 15 1021.3 1020.9 0.0
02/06:30pm 21.9 16.6 4.9 33 8.5 S 22 28 12 15 1020.8 1020.3 0.0
02/06:00pm 22.6 17.0 5.5 33 8.7 S 24 33 13 18 1020.4 1019.9 0.0
02/05:30pm 23.5 17.1 5.4 31 9.2 SSE 28 35 15 19 1020.2 1019.7 0.0
02/05:00pm 24.4 18.8 5.2 29 9.8 SSE 24 33 13 18 1020.1 1019.6 0.0
02/04:30pm 24.7 18.6 5.0 28 10.0 SSE 26 39 14 21 1020.0 1019.5 0.0
02/04:00pm 25.4 19.9 6.1 29 10.1 SSE 24 39 13 21 1019.8 1019.3 0.0
02/03:30pm 25.5 20.1 6.2 29 10.1 S 24 32 13 17 1019.9 1019.4 0.0
02/03:00pm 25.4 19.7 6.6 30 9.9 S 26 39 14 21 1020.2 1019.7 0.0
02/02:30pm 25.7 20.8 6.8 30 10.0 S 22 32 12 17 1020.3 1019.8 0.0
02/02:00pm 25.9 20.6 7.0 30 10.0 S 24 33 13 18 1020.6 1020.1 0.0
02/01:30pm 25.4 20.5 7.1 31 9.7 SSE 22 35 12 19 1021.1 1020.7 0.0
02/01:00pm 25.4 20.6 7.5 32 9.6 SSE 22 33 12 18 1021.7 1021.3 0.0
02/12:30pm 24.9 19.7 7.1 32 9.4 SSE 24 32 13 17 1022.4 1022.0 0.0
02/12:00pm 24.6 20.2 7.3 33 9.2 SE 20 30 11 16 1023.0 1022.6 0.0
02/11:30am 24.4 19.6 7.5 34 8.9 SSE 22 32 12 17 1023.6 1023.2 0.0
02/11:00am 23.5 18.3 7.2 35 8.6 SSE 24 32 13 17 1024.0 1023.6 0.0
02/10:30am 22.6 17.8 7.2 37 8.0 SE 22 30 12 16 1024.4 1023.9 0.0
02/10:00am 21.4 16.2 7.3 40 7.3 SE 24 33 13 18 1024.7 1024.2 0.0
02/09:30am 20.0 14.1 7.7 45 6.4 SE 28 35 15 19 1024.7 1024.2 0.0
02/09:00am 19.2 13.8 7.9 48 5.9 SE 26 39 14 21 1024.6 1024.1 0.0
02/08:30am 17.9 12.8 7.6 51 5.2 SSE 24 35 13 19 1024.4 1023.9 0.0
02/08:00am 16.9 12.7 7.5 54 4.8 SSE 19 28 10 15 1024.3 1023.8 0.0
02/07:30am 16.0 12.6 7.5 57 4.3 SSE 15 22 8 12 1024.0 1023.6 0.0
02/07:00am 15.8 11.6 7.3 57 4.3 SSE 19 24 10 13 1023.7 1023.3 0.0
02/06:30am 16.3 11.5 7.5 56 4.4 SSE 22 30 12 16 1023.4 1023.0 0.0
02/06:00am 16.5 12.1 7.4 55 4.6 SSE 20 30 11 16 1023.1 1022.7 0.0
02/05:30am 16.7 12.3 7.4 54 4.7 SSE 20 28 11 15 1022.9 1022.5 0.0
02/05:00am 16.6 12.7 7.3 54 4.7 SSE 17 22 9 12 1022.7 1022.3 0.0
02/04:30am 16.5 12.6 7.2 54 4.7 SSE 17 24 9 13 1022.7 1022.3 0.0
02/04:00am 16.7 12.3 7.4 54 4.7 SSE 20 26 11 14 1022.6 1022.2 0.0
02/03:30am 16.6 12.1 7.0 53 4.8 SSE 20 26 11 14 1022.5 1022.1 0.0
02/03:00am 17.0 12.8 7.4 53 4.9 SSE 19 24 10 13 1022.6 1022.2 0.0
02/02:30am 17.4 13.2 7.5 52 5.0 SSE 19 24 10 13 1022.5 1022.1 0.0
02/02:00am 17.8 14.1 7.8 52 5.1 S 17 24 9 13 1022.7 1022.3 0.0
02/01:30am 18.1 14.4 7.8 51 5.3 SSE 17 24 9 13 1022.9 1022.5 0.0
02/01:00am 18.7 14.7 8.1 50 5.5 SSE 19 26 10 14 1022.9 1022.5 0.0
02/12:30am 19.4 15.2 8.1 48 5.9 SSE 20 30 11 16 1022.9 1022.5 0.0
02/12:00am 19.6 15.3 8.0 47 6.0 SSE 20 30 11 16 1022.7 1022.3 0.0
 
Date/Time
CST
Temp
°C
App
Temp
°C
Dew
Point
Rel
Hum
%
Delta-T
°C
Wind Press
QNH
hPa
Press
MSL
hPa
Rain
since 9 am
mm
Dir
 
Spd
km/h
Gust
km/h
Spd
kts
Gust
kts
01/11:30pm 20.1 15.5 8.1 46 6.3 SSE 22 30 12 16 1022.7 1022.3 0.0
01/11:00pm 20.4 16.2 8.1 45 6.5 S 20 28 11 15 1022.9 1022.5 0.0
01/10:30pm 20.6 16.4 8.3 45 6.5 S 20 26 11 14 1023.0 1022.6 0.0
01/10:00pm 20.8 16.6 8.4 45 6.6 S 20 26 11 14 1023.0 1022.6 0.0
01/09:30pm 20.8 16.8 8.1 44 6.7 S 19 24 10 13 1022.9 1022.5 0.0
01/09:00pm 21.2 17.1 7.8 42 7.0 S 19 26 10 14 1022.6 1022.2 0.0
01/08:30pm 21.7 17.6 7.9 41 7.2 S 19 24 10 13 1022.3 1021.9 0.0
01/08:00pm 21.8 18.0 7.6 40 7.4 SSW 17 20 9 11 1022.1 1021.7 0.0
01/07:30pm 22.3 18.9 7.7 39 7.7 S 15 19 8 10 1021.7 1021.3 0.0
01/07:00pm 23.3 19.9 7.8 37 8.2 S 15 20 8 11 1021.3 1020.9 0.0
01/06:30pm 24.2 20.8 7.8 35 8.7 S 15 20 8 11 1021.0 1020.6 0.0
01/06:00pm 25.3 21.2 7.9 33 9.4 S 19 24 10 13 1020.7 1020.2 0.0
01/05:30pm 26.2 21.1 7.7 31 10.0 SSE 24 32 13 17 - - 0.0
01/05:00pm 27.0 22.1 8.4 31 10.2 SSE 24 35 13 19 - - 0.0
01/04:30pm 27.6 22.4 9.0 31 10.3 S 26 35 14 19 - - 0.0
01/04:00pm 27.7 22.4 8.6 30 10.5 S 26 39 14 21 - - 0.0
01/03:30pm 28.3 23.6 9.1 30 10.7 SSE 24 35 13 19 - - 0.0
01/03:00pm 27.7 23.8 9.5 32 10.2 SSE 20 30 11 16 - - 0.0
01/02:30pm 27.9 23.8 10.1 33 10.1 S 22 33 12 18 - - 0.0
01/02:00pm 27.6 24.2 11.2 36 9.4 S 20 32 11 17 - - 0.0
01/01:30pm 27.9 24.6 11.5 36 9.5 SSE 20 28 11 15 1021.1 1020.7 0.0
01/01:00pm 27.1 23.9 12.0 39 8.8 SSE 20 28 11 15 1021.7 1021.3 0.0
01/12:30pm 26.9 25.0 12.9 42 8.2 SSE 15 24 8 13 1022.3 1021.9 0.0
01/12:00pm 26.3 24.1 13.4 45 7.7 SE 17 30 9 16 1023.0 1022.6 0.0
01/11:30am 24.9 22.2 12.8 47 7.0 SE 19 28 10 15 1023.6 1023.2 0.0
01/11:00am 23.9 20.9 12.5 49 6.6 SSE 20 28 11 15 1023.9 1023.5 0.0
01/10:30am 23.4 21.1 13.0 52 6.0 SE 17 24 9 13 1024.4 1023.9 0.0
01/10:00am 21.8 18.9 12.4 55 5.4 S 19 26 10 14 1024.7 1024.2 0.0
01/09:30am 20.1 17.4 11.6 58 4.7 SSE 17 22 9 12 1025.0 1024.6 0.0
01/09:00am 18.9 15.4 11.0 60 4.3 S 20 28 11 15 1024.8 1024.3 0.0
01/08:30am 18.2 14.9 10.8 62 4.0 SSE 19 24 10 13 1024.6 1024.1 0.0
01/08:00am 16.9 13.3 10.7 67 3.3 S 20 26 11 14 1024.1 1023.7 0.0
01/07:30am 15.5 13.5 10.3 71 2.8 S 11 15 6 8 1023.7 1023.3 0.0
01/07:00am 15.3 13.0 10.3 72 2.7 S 13 17 7 9 1023.5 1023.0 0.0
01/06:30am 15.3 12.9 10.1 71 2.7 S 13 15 7 8 1023.2 1022.7 0.0
01/06:00am 15.7 13.3 10.2 70 2.9 S 13 15 7 8 1022.9 1022.4 0.0
01/05:30am 16.2 13.9 10.3 68 3.1 S 13 15 7 8 1022.8 1022.3 0.0
01/05:00am 16.8 14.5 10.4 66 3.4 S 13 17 7 9 1022.6 1022.1 0.0
01/04:30am 17.4 14.7 10.5 64 3.7 SSE 15 19 8 10 1022.4 1021.9 0.0
01/04:00am 17.7 15.0 10.3 62 4.0 S 15 19 8 10 1022.2 1021.7 0.0
01/03:30am 18.1 15.0 10.2 60 4.2 S 17 24 9 13 1022.0 1021.5 0.0
01/03:00am 18.6 15.2 10.4 59 4.4 S 19 26 10 14 1021.9 1021.4 0.0
01/02:30am 18.7 15.3 10.5 59 4.4 S 19 24 10 13 1022.1 1021.6 0.0
01/02:00am 19.3 15.7 10.6 57 4.8 SSE 20 24 11 13 1022.0 1021.5 0.0
01/01:30am 19.7 16.3 10.7 56 4.9 SSE 19 26 10 14 1022.1 1021.6 0.0
01/01:00am 20.4 17.1 10.8 54 5.3 SSE 19 26 10 14 1022.0 1021.5 0.0
01/12:30am 20.4 17.1 10.8 54 5.3 SSE 19 24 10 13 1022.0 1021.5 0.0
01/12:00am 20.7 17.4 10.8 53 5.5 SSE 19 30 10 16 1022.1 1021.6 0.0
 
Date/Time
CST
Temp
°C
App
Temp
°C
Dew
Point
Rel
Hum
%
Delta-T
°C
Wind Press
QNH
hPa
Press
MSL
hPa
Rain
since 9 am
mm
Dir
 
Spd
km/h
Gust
km/h
Spd
kts
Gust
kts
30/11:30pm 21.1 17.6 10.9 52 5.6 SSE 20 24 11 13 1022.1 1021.6 0.0
30/11:00pm 21.6 17.8 11.0 51 5.9 SSE 22 30 12 16 1022.2 1021.7 0.0
30/10:30pm 22.2 18.8 11.3 50 6.1 SSE 20 28 11 15 1022.2 1021.7 0.0
30/10:00pm 22.1 18.9 11.2 50 6.1 SSE 19 24 10 13 1022.2 1021.7 0.0
30/09:30pm 22.8 19.4 11.2 48 6.5 SSE 20 26 11 14 1022.0 1021.5 0.0
30/09:00pm 23.3 19.2 11.4 47 6.7 SSE 24 32 13 17 1021.6 1021.1 0.0
30/08:30pm 23.7 20.5 11.4 46 7.0 SSE 19 28 10 15 1021.5 1021.0 0.0
30/08:00pm 24.1 20.7 11.4 45 7.2 SSE 20 28 11 15 1021.2 1020.7 0.0
30/07:30pm 24.6 21.3 11.5 44 7.5 SSE 20 30 11 16 1020.6 1020.1 0.0
30/07:00pm 25.3 21.3 11.8 43 7.8 SSE 24 32 13 17 1020.2 1019.7 0.0
30/06:30pm 25.7 22.1 11.8 42 8.0 SSE 22 28 12 15 1020.0 1019.5 0.0
30/06:00pm 26.2 22.6 11.9 41 8.3 SSE 22 30 12 16 1019.6 1019.1 0.0
30/05:30pm 27.2 22.9 12.0 38 8.8 SSE 26 39 14 21 - - 0.0
30/05:00pm 28.1 23.4 12.0 36 9.4 S 28 35 15 19 - - 0.0
30/04:30pm 28.3 24.0 12.2 37 9.4 SSE 26 33 14 18 - - 0.0
30/04:00pm 28.5 25.1 12.4 37 9.5 SSE 22 35 12 19 - - 0.0
30/03:30pm 28.1 24.8 11.6 36 9.6 SSE 20 30 11 16 - - 0.0
30/03:00pm 29.0 26.3 12.8 36 9.6 SE 19 26 10 14 - - 0.0
30/02:30pm 28.1 25.2 12.4 37 9.2 SE 19 30 10 16 - - 0.0
30/02:00pm 28.0 25.9 13.5 41 8.7 SE 17 30 9 16 - - 0.0
30/01:30pm 27.6 25.8 13.2 41 8.6 SE 15 20 8 11 - - 0.0
30/01:00pm 28.1 26.1 14.0 42 8.5 SE 17 22 9 12 - - 0.0
30/12:30pm 26.7 25.3 14.5 47 7.4 SE 15 26 8 14 1020.6 1020.1 0.0
30/12:00pm 26.8 25.2 13.9 45 7.7 SSE 15 24 8 13 1021.0 1020.5 0.0

Other Formats:

Comma delimited format used in spreadsheet applications
http://www.bom.gov.au/fwo/IDD60801/IDD60801.94255.axf

JavaScript Object Notation format (JSON) in row-major order
http://www.bom.gov.au/fwo/IDD60801/IDD60801.94255.json